User: anonymous   Login
Location: Vancouver
(49.2500°N, 123.1330°W)
Time: 11:46:01
(UTC-07:00)
Language:

H-2A R/B - Orbit

View from above orbital plane
View from above orbital plane
View from above satellite
View from above satellite

Ground track
Ground track

The orbit data is extracted from the following two-line orbital elements,

1 27601U 02056E   16211.82572637  .00000037  00000-0  28928-4 0  9993
2 27601  98.4163 284.0650 0072534 169.8454 300.5276 14.31725874711680
Epoch (UTC): 29 July 2016 19:49:02
Eccentricity: 0.0072534
inclination: 98.4163°
perigee height: 734 km
apogee height: 838 km
right ascension of ascending node: 284.0650°
argument of perigee: 169.8454°
revolutions per day: 14.31725874
mean anomaly at epoch: 300.5276°
orbit number at epoch: 71168

The dashed part of the orbit path shows where the satellite is in the earth's shadow,  

DLR